Time,TemperatureF,DewpointF,PressureIn,WindDirection,WindDirectionDegrees,WindSpeedMPH,WindSpeedGustMPH,Humidity,HourlyPrecipIn,Conditions,Clouds,dailyrainin,SolarRadiationWatts/m^2,SoftwareType,DateUTC
2013-05-16 00:02:00,53.0,51.0,-100.00,SSW,208,3.0,9.0,93,0.01,,,0.01,1.000000,,2013-05-16 07:02:00,
2013-05-16 00:34:00,53.0,52.0,-100.00,SE,146,0.0,6.0,95,0.00,,,0.01,1.000000,,2013-05-16 07:34:00,
2013-05-16 00:44:00,53.0,52.0,-100.00,SE,146,0.0,6.0,95,0.00,,,0.01,1.000000,,2013-05-16 07:44:00,
2013-05-16 00:54:00,53.0,52.0,-100.00,SE,146,0.0,6.0,95,0.00,,,0.01,1.000000,,2013-05-16 07:54:00,
2013-05-16 01:03:00,53.0,52.0,-100.00,SE,146,0.0,6.0,95,0.00,,,0.01,1.000000,,2013-05-16 08:03:00,
2013-05-16 01:35:00,53.0,52.0,-100.00,SSW,192,0.0,0.0,96,0.00,,,0.01,1.000000,,2013-05-16 08:35:00,
2013-05-16 01:45:00,53.0,52.0,-100.00,SSW,192,0.0,0.0,96,0.00,,,0.01,1.000000,,2013-05-16 08:45:00,
2013-05-16 01:55:00,53.0,52.0,-100.00,SSW,192,0.0,0.0,96,0.00,,,0.01,1.000000,,2013-05-16 08:55:00,
2013-05-16 02:04:00,53.0,52.0,-100.00,SSW,192,0.0,0.0,96,0.00,,,0.01,1.000000,,2013-05-16 09:04:00,
2013-05-16 02:35:00,53.0,52.0,-100.00,SSE,160,0.0,0.0,96,0.00,,,0.01,1.000000,,2013-05-16 09:35:00,
2013-05-16 02:45:00,53.0,52.0,-100.00,SSE,160,0.0,0.0,96,0.00,,,0.01,1.000000,,2013-05-16 09:45:00,
2013-05-16 02:55:00,53.0,52.0,-100.00,SSE,160,0.0,0.0,96,0.00,,,0.01,1.000000,,2013-05-16 09:55:00,
2013-05-16 03:04:00,53.0,52.0,-100.00,SSE,160,0.0,0.0,96,0.00,,,0.01,1.000000,,2013-05-16 10:04:00,
2013-05-16 03:36:00,53.0,52.0,-100.00,SE,144,0.0,0.0,96,0.00,,,0.01,1.000000,,2013-05-16 10:36:00,
2013-05-16 03:45:00,53.0,52.0,-100.00,SE,144,0.0,0.0,96,0.00,,,0.01,1.000000,,2013-05-16 10:45:00,
2013-05-16 03:56:00,53.0,52.0,-100.00,SE,144,0.0,0.0,96,0.00,,,0.01,1.000000,,2013-05-16 10:56:00,
2013-05-16 04:05:00,53.0,52.0,-100.00,SE,144,0.0,0.0,96,0.00,,,0.01,1.000000,,2013-05-16 11:05:00,
2013-05-16 04:35:00,53.0,52.0,-100.00,South,183,0.0,0.0,96,0.00,,,0.01,1.000000,,2013-05-16 11:35:00,
2013-05-16 04:46:00,53.0,52.0,-100.00,South,183,0.0,0.0,96,0.00,,,0.01,1.000000,,2013-05-16 11:46:00,
2013-05-16 04:56:00,53.0,52.0,-100.00,South,183,0.0,0.0,96,0.00,,,0.01,1.000000,,2013-05-16 11:56:00,
2013-05-16 05:05:00,53.0,52.0,-100.00,South,183,0.0,0.0,96,0.00,,,0.01,1.000000,,2013-05-16 12:05:00,
2013-05-16 05:35:00,52.0,51.0,-100.00,SSE,158,0.0,1.0,97,0.00,,,0.01,1.000000,,2013-05-16 12:35:00,
2013-05-16 05:45:00,52.0,51.0,-100.00,SSE,158,0.0,1.0,97,0.00,,,0.01,1.000000,,2013-05-16 12:45:00,
2013-05-16 05:53:00,52.0,51.0,-100.00,SSE,158,0.0,1.0,97,0.00,,,0.01,1.000000,,2013-05-16 12:53:00,
2013-05-16 06:04:00,52.0,51.0,-100.00,SSE,158,0.0,1.0,97,0.00,,,0.01,1.000000,,2013-05-16 13:04:00,
2013-05-16 06:35:00,52.0,51.0,-100.00,ESE,102,0.0,0.0,97,0.00,,,-99.99,8.000000,,2013-05-16 13:35:00,
2013-05-16 06:43:00,52.0,51.0,-100.00,ESE,102,0.0,0.0,97,0.00,,,-99.99,8.000000,,2013-05-16 13:43:00,
2013-05-16 06:55:00,52.0,51.0,-100.00,ESE,102,0.0,0.0,97,0.00,,,-99.99,8.000000,,2013-05-16 13:55:00,
2013-05-16 07:05:00,52.0,51.0,-100.00,ESE,102,0.0,0.0,97,0.00,,,-99.99,8.000000,,2013-05-16 14:05:00,
2013-05-16 07:08:00,53.0,52.0,-100.00,SSW,210,0.0,0.0,97,0.01,,,0.02,30.000000,,2013-05-16 14:08:00,
2013-05-16 07:37:00,53.0,52.0,-100.00,SSW,210,0.0,0.0,97,0.01,,,0.02,30.000000,,2013-05-16 14:37:00,
2013-05-16 07:47:00,53.0,52.0,-100.00,SSW,210,0.0,0.0,97,0.01,,,0.02,30.000000,,2013-05-16 14:47:00,
2013-05-16 07:56:00,53.0,52.0,-100.00,SSW,210,0.0,0.0,97,0.01,,,0.02,30.000000,,2013-05-16 14:56:00,
2013-05-16 08:08:00,55.0,50.0,-100.00,West,277,1.0,4.0,83,0.00,,,0.02,82.000000,,2013-05-16 15:08:00,
2013-05-16 08:40:00,55.0,50.0,-100.00,West,277,1.0,4.0,83,0.00,,,0.02,82.000000,,2013-05-16 15:40:00,
2013-05-16 08:50:00,55.0,50.0,-100.00,West,277,1.0,4.0,83,0.00,,,0.02,82.000000,,2013-05-16 15:50:00,
2013-05-16 09:00:00,55.0,50.0,-100.00,West,277,1.0,4.0,83,0.00,,,0.02,82.000000,,2013-05-16 16:00:00,
2013-05-16 09:08:00,58.0,51.0,-100.00,East,80,3.0,5.0,78,0.00,,,0.02,193.000000,,2013-05-16 16:08:00,
2013-05-16 09:40:00,58.0,-99.9,-100.00,East,80,3.0,5.0,78,0.00,,,0.02,193.000000,,2013-05-16 16:40:00,
2013-05-16 09:51:00,58.0,51.0,-100.00,East,80,3.0,5.0,78,0.00,,,0.02,193.000000,,2013-05-16 16:51:00,
2013-05-16 10:00:00,58.0,51.0,-100.00,East,80,3.0,5.0,78,0.00,,,0.02,193.000000,,2013-05-16 17:00:00,
2013-05-16 10:08:00,60.0,50.0,-100.00,WSW,247,2.0,5.0,70,0.00,,,-99.99,242.000000,,2013-05-16 17:08:00,
2013-05-16 10:40:00,60.0,50.0,-100.00,WSW,247,2.0,5.0,70,0.00,,,-99.99,242.000000,,2013-05-16 17:40:00,
2013-05-16 10:50:00,-999.0,-99.9,-100.00,WSW,247,2.0,5.0,70,0.00,,,-99.99,242.000000,,2013-05-16 17:50:00,
2013-05-16 11:00:00,-999.0,-99.9,-100.00,WSW,247,2.0,5.0,70,0.00,,,-99.99,242.000000,,2013-05-16 18:00:00,
2013-05-16 11:08:00,62.0,52.0,-100.00,West,272,4.0,8.0,71,0.00,,,0.02,351.000000,,2013-05-16 18:08:00,
2013-05-16 11:40:00,-999.0,-99.9,-100.00,West,272,4.0,8.0,71,0.00,,,0.02,351.000000,,2013-05-16 18:40:00,
2013-05-16 11:50:00,-999.0,-99.9,-100.00,West,272,4.0,8.0,71,0.00,,,0.02,351.000000,,2013-05-16 18:50:00,
2013-05-16 12:00:00,-999.0,-99.9,-100.00,West,272,4.0,8.0,71,0.00,,,0.02,351.000000,,2013-05-16 19:00:00,
2013-05-16 12:08:00,-999.0,-99.9,-100.00,West,278,5.0,8.0,54,0.00,,,0.02,669.000000,,2013-05-16 19:08:00,
2013-05-16 12:40:00,68.0,-99.9,-100.00,West,278,5.0,8.0,54,0.00,,,0.02,669.000000,,2013-05-16 19:40:00,
2013-05-16 12:51:00,-999.0,-99.9,-100.00,West,278,5.0,8.0,54,0.00,,,0.02,669.000000,,2013-05-16 19:51:00,
2013-05-16 13:00:00,68.0,-99.9,-100.00,West,278,5.0,8.0,54,0.00,,,0.02,669.000000,,2013-05-16 20:00:00,
2013-05-16 13:08:00,68.0,-99.9,-100.00,WSW,248,6.0,11.0,53,0.00,,,0.02,808.000000,,2013-05-16 20:08:00,
2013-05-16 13:41:00,-999.0,-99.9,-100.00,WSW,248,6.0,11.0,53,0.00,,,0.02,808.000000,,2013-05-16 20:41:00,
2013-05-16 13:51:00,68.0,50.0,-100.00,WSW,248,6.0,11.0,53,0.00,,,0.02,808.000000,,2013-05-16 20:51:00,
2013-05-16 14:00:00,68.0,-99.9,-100.00,WSW,248,6.0,11.0,53,0.00,,,0.02,808.000000,,2013-05-16 21:00:00,
2013-05-16 14:08:00,68.0,51.0,-100.00,WSW,241,6.0,12.0,55,0.00,,,0.02,611.000000,,2013-05-16 21:08:00,
2013-05-16 15:00:00,-999.0,-99.9,-100.00,WSW,241,6.0,12.0,55,0.00,,,0.02,611.000000,,2013-05-16 22:00:00,
2013-05-16 15:40:00,66.0,50.0,-100.00,WSW,237,5.0,14.0,57,0.00,,,0.02,261.000000,,2013-05-16 22:40:00,
2013-05-16 15:51:00,66.0,50.0,-100.00,WSW,237,5.0,14.0,57,0.00,,,0.02,261.000000,,2013-05-16 22:51:00,
2013-05-16 16:00:00,66.0,50.0,-100.00,WSW,237,5.0,14.0,57,0.00,,,0.02,261.000000,,2013-05-16 23:00:00,
2013-05-16 16:06:00,66.0,50.0,-100.00,WSW,237,5.0,14.0,57,0.00,,,0.02,261.000000,,2013-05-16 23:06:00,
2013-05-16 16:35:00,59.0,54.0,-100.00,WSW,254,7.0,24.0,82,0.00,,,0.02,247.000000,,2013-05-16 23:35:00,
2013-05-16 16:45:00,59.0,54.0,-100.00,WSW,254,7.0,24.0,82,0.00,,,0.02,247.000000,,2013-05-16 23:45:00,
2013-05-16 16:54:00,59.0,54.0,-100.00,WSW,254,7.0,24.0,82,0.00,,,0.02,247.000000,,2013-05-16 23:54:00,
2013-05-16 17:02:00,59.0,54.0,-100.00,WSW,254,7.0,24.0,82,0.00,,,0.02,247.000000,,2013-05-17 00:02:00,
2013-05-16 17:33:00,58.0,52.0,-100.00,SW,229,5.0,15.0,81,0.00,,,-99.99,150.000000,,2013-05-17 00:33:00,
2013-05-16 17:44:00,58.0,52.0,-100.00,SW,229,5.0,15.0,81,0.00,,,-99.99,150.000000,,2013-05-17 00:44:00,
2013-05-16 17:53:00,58.0,52.0,-100.00,SW,229,5.0,15.0,81,0.00,,,-99.99,150.000000,,2013-05-17 00:53:00,
2013-05-16 18:03:00,58.0,52.0,-100.00,SW,229,5.0,15.0,81,0.00,,,-99.99,150.000000,,2013-05-17 01:03:00,
2013-05-16 18:32:00,59.0,52.0,-100.00,WSW,243,5.0,8.0,77,0.00,,,0.02,142.000000,,2013-05-17 01:32:00,
2013-05-16 18:44:00,59.0,52.0,-100.00,WSW,243,5.0,8.0,77,0.00,,,0.02,142.000000,,2013-05-17 01:44:00,
2013-05-16 18:52:00,59.0,52.0,-100.00,WSW,243,5.0,8.0,77,0.00,,,0.02,142.000000,,2013-05-17 01:52:00,
2013-05-16 19:02:00,59.0,52.0,-100.00,WSW,243,5.0,8.0,77,0.00,,,0.02,142.000000,,2013-05-17 02:02:00,
2013-05-16 19:33:00,58.0,50.0,-100.00,West,263,3.0,9.0,75,0.00,,,0.02,75.000000,,2013-05-17 02:33:00,
2013-05-16 19:42:00,58.0,50.0,-100.00,West,263,3.0,9.0,75,0.00,,,0.02,75.000000,,2013-05-17 02:42:00,
2013-05-16 19:53:00,58.0,50.0,-100.00,West,263,3.0,9.0,75,0.00,,,0.02,75.000000,,2013-05-17 02:53:00,
2013-05-16 20:01:00,58.0,50.0,-100.00,West,263,3.0,9.0,75,0.00,,,0.02,75.000000,,2013-05-17 03:01:00,
2013-05-16 20:34:00,57.0,51.0,-100.00,SSW,211,3.0,8.0,81,0.00,,,0.02,27.000000,,2013-05-17 03:34:00,
2013-05-16 20:43:00,57.0,51.0,-100.00,SSW,211,3.0,8.0,81,0.00,,,0.02,27.000000,,2013-05-17 03:43:00,
2013-05-16 20:53:00,57.0,51.0,-100.00,SSW,211,3.0,8.0,81,0.00,,,0.02,27.000000,,2013-05-17 03:53:00,
2013-05-16 21:02:00,57.0,51.0,-100.00,SSW,211,3.0,8.0,81,0.00,,,0.02,27.000000,,2013-05-17 04:02:00,
2013-05-16 21:34:00,56.0,52.0,-100.00,South,191,3.0,9.0,85,0.00,,,0.02,2.000000,,2013-05-17 04:34:00,
2013-05-16 21:43:00,56.0,52.0,-100.00,South,191,3.0,9.0,85,0.00,,,0.02,2.000000,,2013-05-17 04:43:00,
2013-05-16 21:53:00,56.0,52.0,-100.00,South,191,3.0,9.0,85,0.00,,,0.02,2.000000,,2013-05-17 04:53:00,
2013-05-16 22:02:00,56.0,52.0,-100.00,South,191,3.0,9.0,85,0.00,,,0.02,2.000000,,2013-05-17 05:02:00,
2013-05-16 22:32:00,54.0,52.0,-100.00,South,186,0.0,5.0,93,0.01,,,0.03,1.000000,,2013-05-17 05:32:00,
2013-05-16 22:43:00,54.0,52.0,-100.00,South,186,0.0,5.0,93,0.01,,,0.03,1.000000,,2013-05-17 05:43:00,
2013-05-16 22:52:00,54.0,52.0,-100.00,South,186,0.0,5.0,93,0.01,,,0.03,1.000000,,2013-05-17 05:52:00,
2013-05-16 23:01:00,54.0,52.0,-100.00,South,186,0.0,5.0,93,0.01,,,0.03,1.000000,,2013-05-17 06:01:00,
2013-05-16 23:32:00,53.0,52.0,-100.00,SSW,201,0.0,4.0,95,0.01,,,0.03,1.000000,,2013-05-17 06:32:00,
2013-05-16 23:42:00,53.0,52.0,-100.00,SSW,201,0.0,4.0,95,0.01,,,0.03,1.000000,,2013-05-17 06:42:00,
2013-05-16 23:52:00,53.0,52.0,-100.00,SSW,201,0.0,4.0,95,0.01,,,0.03,1.000000,,2013-05-17 06:52:00,